When you browse on this site, cookies collect data to enhance your experience and personalize the content and advertising you see.
Visit our Privacy Policy to learn more. By continuing to use the site, you agree to this use of cookies and data.
  • In Lithuania
  • List of Countries
  • For 7 days
  • Water Temperature
  • Satellite Maps
  • Weather Map
  • Weather Widgets
  • user-avatar
    Login

    Hourly Weather Gjirokaster

    Today, 22 May, Wednesday

    Time Temperature Precipitation Wind Pressure Humidity
    00:00 +7°C° 0 mm 1 mps 651 mmHg 88%
    01:00 +7°C° 0 mm 1 mps 650 mmHg 85%
    02:00 +7°C° 0 mm 1 mps 650 mmHg 84%
    03:00 +6°C° 0 mm 1 mps 650 mmHg 82%
    04:00 +6°C° 0 mm 1 mps 650 mmHg 80%
    05:00 +8°C° 0 mm 1 mps 651 mmHg 76%
    06:00 +8°C° 0 mm 0 mps 651 mmHg 71%
    07:00 +10°C° 0 mm 0 mps 651 mmHg 64%
    08:00 +12°C° 0 mm 1 mps 652 mmHg 63%
    09:00 +13°C° 0 mm 1 mps 652 mmHg 61%
    10:00 +14°C° 0 mm 2 mps 653 mmHg 60%
    11:00 +14°C° 0 mm 2 mps 653 mmHg 59%
    12:00 +15°C° 0 mm 2 mps 653 mmHg 59%
    13:00 +15°C° 0 mm 2 mps 653 mmHg 56%
    14:00 +15°C° 0 mm 2 mps 653 mmHg 57%
    15:00 +15°C° 0 mm 2 mps 652 mmHg 58%
    16:00 +15°C° 0 mm 2 mps 652 mmHg 59%
    17:00 +13°C° 0 mm 2 mps 652 mmHg 65%
    18:00 +11°C° 0 mm 1 mps 651 mmHg 70%
    19:00 +10°C° 0 mm 1 mps 651 mmHg 76%
    20:00 +9°C° 0 mm 1 mps 651 mmHg 79%
    21:00 +8°C° 0 mm 1 mps 651 mmHg 81%
    22:00 +8°C° 0 mm 1 mps 651 mmHg 84%
    23:00 +7°C° 0 mm 1 mps 651 mmHg 84%

    Tomorrow, 23 May, Thursday

    Time Temperature Precipitation Wind Pressure Humidity
    00:00 +7°C° 0 mm 1 mps 650 mmHg 84%
    01:00 +7°C° 0 mm 1 mps 650 mmHg 85%
    02:00 +7°C° 0 mm 1 mps 650 mmHg 83%
    03:00 +7°C° 0 mm 1 mps 650 mmHg 81%
    04:00 +6°C° 0 mm 1 mps 650 mmHg 79%
    05:00 +8°C° 0 mm 1 mps 650 mmHg 74%
    06:00 +10°C° 0 mm 1 mps 651 mmHg 69%
    07:00 +11°C° 0 mm 1 mps 651 mmHg 64%
    08:00 +12°C° 0 mm 2 mps 651 mmHg 61%
    09:00 +14°C° 0 mm 2 mps 652 mmHg 58%
    10:00 +14°C° 0 mm 3 mps 652 mmHg 54%
    11:00 +14°C° 0 mm 3 mps 652 mmHg 54%
    12:00 +16°C° 0 mm 3 mps 652 mmHg 54%
    13:00 +16°C° 0 mm 3 mps 652 mmHg 54%
    14:00 +16°C° 0.1 mm 3 mps 652 mmHg 57%
    15:00 +14°C° 0.1 mm 3 mps 651 mmHg 60%
    16:00 +14°C° 0.1 mm 3 mps 651 mmHg 63%
    17:00 +12°C° 0 mm 3 mps 650 mmHg 69%
    18:00 +10°C° 0 mm 2 mps 650 mmHg 75%
    19:00 +9°C° 0 mm 2 mps 650 mmHg 82%
    20:00 +8°C° 0 mm 2 mps 650 mmHg 83%
    21:00 +8°C° 0 mm 2 mps 650 mmHg 85%
    22:00 +8°C° 0 mm 1 mps 650 mmHg 87%
    23:00 +8°C° 0 mm 1 mps 649 mmHg 86%

    Day after tomorrow, 24 May, Friday

    Time Temperature Precipitation Wind Pressure Humidity
    00:00 +7°C° 0 mm 1 mps 649 mmHg 85%
    01:00 +7°C° 0 mm 1 mps 649 mmHg 84%
    02:00 +7°C° 0 mm 1 mps 649 mmHg 82%
    03:00 +6°C° 0 mm 1 mps 648 mmHg 81%
    04:00 +6°C° 0 mm 1 mps 648 mmHg 79%
    05:00 +7°C° 0 mm 1 mps 649 mmHg 74%
    06:00 +8°C° 0 mm 2 mps 649 mmHg 69%
    07:00 +9°C° 0 mm 2 mps 650 mmHg 63%
    08:00 +12°C° 0 mm 2 mps 650 mmHg 59%
    09:00 +13°C° 0 mm 2 mps 651 mmHg 55%
    10:00 +14°C° 0 mm 2 mps 651 mmHg 51%
    11:00 +14°C° 0 mm 3 mps 651 mmHg 52%
    12:00 +16°C° 0 mm 3 mps 651 mmHg 53%
    13:00 +16°C° 0 mm 3 mps 651 mmHg 54%
    14:00 +16°C° 0 mm 3 mps 651 mmHg 58%
    15:00 +14°C° 0 mm 3 mps 651 mmHg 63%
    16:00 +14°C° 0 mm 3 mps 650 mmHg 67%
    17:00 +12°C° 0.1 mm 3 mps 650 mmHg 74%
    18:00 +12°C° 0.1 mm 2 mps 650 mmHg 82%
    19:00 +9°C° 0.1 mm 2 mps 649 mmHg 89%
    20:00 +10°C° 0 mm 1 mps 649 mmHg 90%
    21:00 +9°C° 0 mm 1 mps 650 mmHg 91%
    22:00 +8°C° 0 mm 1 mps 650 mmHg 92%
    23:00 +8°C° 0 mm 1 mps 649 mmHg 91%

    25 May, Saturday

    Time Temperature Precipitation Wind Pressure Humidity
    00:00 +7°C° 0 mm 0 mps 649 mmHg 91%
    01:00 +6°C° 0 mm 0 mps 649 mmHg 90%
    02:00 +6°C° 0 mm 0 mps 649 mmHg 90%
    03:00 +7°C° 0 mm 1 mps 649 mmHg 89%
    04:00 +7°C° 0 mm 1 mps 649 mmHg 89%
    05:00 +7°C° 0 mm 0 mps 650 mmHg 83%
    06:00 +9°C° 0 mm 0 mps 650 mmHg 77%
    07:00 +10°C° 0 mm 0 mps 651 mmHg 72%
    08:00 +13°C° 0 mm 1 mps 651 mmHg 66%
    09:00 +14°C° 0 mm 1 mps 652 mmHg 61%
    10:00 +15°C° 0 mm 2 mps 652 mmHg 55%
    11:00 +16°C° 0 mm 2 mps 652 mmHg 55%
    12:00 +16°C° 0 mm 2 mps 652 mmHg 55%
    13:00 +17°C° 0 mm 2 mps 653 mmHg 55%
    14:00 +16°C° 0 mm 2 mps 652 mmHg 58%
    15:00 +16°C° 0 mm 2 mps 652 mmHg 61%
    16:00 +16°C° 0 mm 2 mps 652 mmHg 64%
    17:00 +14°C° 0 mm 2 mps 652 mmHg 71%
    18:00 +13°C° 0 mm 1 mps 651 mmHg 77%
    19:00 +11°C° 0 mm 1 mps 651 mmHg 84%
    20:00 +9°C° 0 mm 0 mps 651 mmHg 86%
    21:00 +9°C° 0 mm 0 mps 651 mmHg 87%
    22:00 +8°C° 0 mm 0 mps 651 mmHg 89%
    23:00 +8°C° 0 mm 0 mps 651 mmHg 88%

    26 May, Sunday

    Time Temperature Precipitation Wind Pressure Humidity
    00:00 +9°C° 0 mm 1 mps 651 mmHg 88%
    01:00 +9°C° 0 mm 1 mps 651 mmHg 87%
    02:00 +9°C° 0 mm 1 mps 650 mmHg 86%
    03:00 +10°C° 0 mm 1 mps 650 mmHg 84%
    04:00 +10°C° 0 mm 1 mps 650 mmHg 83%
    05:00 +11°C° 0 mm 1 mps 651 mmHg 81%
    06:00 +11°C° 0 mm 1 mps 651 mmHg 79%
    07:00 +12°C° 0 mm 2 mps 651 mmHg 77%
    08:00 +14°C° 0 mm 2 mps 652 mmHg 70%
    09:00 +15°C° 0 mm 2 mps 652 mmHg 63%
    10:00 +16°C° 0 mm 2 mps 653 mmHg 56%
    11:00 +15°C° 0.7 mm 2 mps 652 mmHg 62%
    12:00 +14°C° 0.7 mm 2 mps 652 mmHg 69%
    13:00 +13°C° 0.7 mm 2 mps 652 mmHg 76%
    14:00 +15°C° 0 mm 2 mps 652 mmHg 71%
    15:00 +16°C° 0 mm 2 mps 652 mmHg 66%
    16:00 +17°C° 0 mm 2 mps 652 mmHg 61%
    17:00 +16°C° 0 mm 1 mps 652 mmHg 63%
    18:00 +15°C° 0 mm 1 mps 652 mmHg 66%
    19:00 +14°C° 0 mm 1 mps 651 mmHg 68%
    20:00 +13°C° 0 mm 1 mps 651 mmHg 68%
    21:00 +13°C° 0 mm 1 mps 651 mmHg 68%
    22:00 +12°C° 0 mm 1 mps 651 mmHg 68%
    23:00 +12°C° 0 mm 1 mps 651 mmHg 68%

    27 May, Monday

    Time Temperature Precipitation Wind Pressure Humidity
    00:00 +12°C° 0 mm 1 mps 650 mmHg 68%
    01:00 +11°C° 0 mm 1 mps 650 mmHg 68%
    02:00 +12°C° 0 mm 1 mps 650 mmHg 67%
    03:00 +12°C° 0 mm 1 mps 650 mmHg 67%
    04:00 +12°C° 0 mm 2 mps 650 mmHg 66%
    05:00 +13°C° 0 mm 2 mps 650 mmHg 67%
    06:00 +14°C° 0 mm 2 mps 650 mmHg 67%
    07:00 +15°C° 0 mm 2 mps 651 mmHg 68%
    08:00 +16°C° 0 mm 2 mps 651 mmHg 62%
    09:00 +18°C° 0 mm 2 mps 652 mmHg 57%
    10:00 +19°C° 0 mm 2 mps 652 mmHg 52%
    11:00 +18°C° 0.6 mm 2 mps 652 mmHg 59%
    12:00 +17°C° 0.6 mm 2 mps 651 mmHg 65%
    13:00 +16°C° 0.6 mm 2 mps 651 mmHg 72%
    14:00 +16°C° 0.3 mm 2 mps 651 mmHg 70%
    15:00 +17°C° 0.3 mm 2 mps 651 mmHg 68%
    16:00 +17°C° 0.3 mm 2 mps 651 mmHg 66%
    17:00 +16°C° 0 mm 2 mps 650 mmHg 71%
    18:00 +15°C° 0 mm 2 mps 650 mmHg 76%
    19:00 +14°C° 0 mm 2 mps 649 mmHg 81%
    20:00 +13°C° 0.1 mm 2 mps 649 mmHg 81%
    21:00 +13°C° 0.1 mm 2 mps 649 mmHg 82%
    22:00 +13°C° 0.1 mm 2 mps 649 mmHg 82%
    23:00 +13°C° 0.1 mm 2 mps 649 mmHg 83%
    Show more